This demonstration page uses our WeatherBlox Daily Observations layout. Learn more.

Left ArrowRight Arrow

34.74481, -87.66753

Hourly Observations for April 2, 2015

Temp ( °F °C ) Dew Point ( °F °C ) Humidity (%) Winds ( mph kmh ) Pressure ( in mb ) Visibility ( mi km ) Precip ( " mm )
12:53 am 00:53 Mostly Clear 64 17.8 57 13.9 78 78 SSE 6 9 30.01 1016 10 16 0.00 0.00
1:53 am 01:53 Clear 63 17.2 56 13.3 78 78 SSE 6 9 30.00 1016 10 16 0.00 0.00
2:53 am 02:53 Clear 62 16.7 56 13.3 80 80 S 3 6 30.00 1016 10 16 0.00 0.00
3:53 am 03:53 Clear 64 17.8 56 13.3 75 75 S 7 11 30.00 1016 10 16 0.00 0.00
4:53 am 04:53 Clear 66 18.9 57 13.9 73 73 SSW 9 15 30.01 1016 10 16 0.00 0.00
5:53 am 05:53 Mostly Clear 65 18.3 59 15 81 81 SSW 8 13 30.02 1017 10 16 0.00 0.00
6:53 am 06:53 Mostly Cloudy 66 18.9 59 15 78 78 SSW 9 15 30.04 1017 10 16 0.00 0.00
7:53 am 07:53 Sunny 67 19.4 60 15.6 79 79 SSW 7 11 30.05 1018 10 16 0.00 0.00
8:53 am 08:53 Mostly Sunny 69 20.6 62 16.7 78 78 S 9 15 30.06 1018 10 16 0.00 0.00
9:10 am 09:10 Mostly Cloudy 69 20.6 62 16.7 78 78 S 8 13 30.06 1018 10 16 0.00 0.00
9:17 am 09:17 Partly Cloudy 69 20.6 62 16.7 78 78 S 10 17 30.06 1018 10 16 0.00 0.00
9:26 am 09:26 Mostly Cloudy 69 20.6 62 16.7 78 78 S 10 17 30.06 1018 10 16 0.00 0.00
9:36 am 09:36 Partly Cloudy 69 20.6 62 16.7 78 78 SSW 10 17 30.06 1018 10 16 0.00 0.00
9:53 am 09:53 Mostly Cloudy 69 20.6 62 16.7 78 78 SSW 10 17 30.07 1018 10 16 0.00 0.00
10:53 am 10:53 Cloudy with Light Rain 68 20 60 15.6 76 76 SSW 12 19 30.08 1019 10 16 0.01 0.25
11:53 am 11:53 Cloudy 69 20.6 63 17.2 81 81 S 10 17 30.08 1019 10 16 0.00 0.03
12:53 pm 12:53 Mostly Cloudy 70 21.1 64 17.8 82 82 SSE 7 11 30.07 1018 10 16 0.00 0.00
1:53 pm 13:53 Mostly Cloudy 76 24.4 62 16.7 62 62 SSW 17 28 30.03 1017 10 16 0.00 0.00
3:53 pm 15:53 Mostly Cloudy 78 25.6 56 13.3 47 47 WSW 29 46 29.97 1015 10 16 0.00 0.00
4:53 pm 16:53 Partly Cloudy 76 24.4 55 12.8 48 48 SW 16 26 29.98 1015 10 16 0.00 0.00
5:53 pm 17:53 Mostly Sunny 76 24.4 53 11.7 45 45 SW 14 22 29.97 1015 10 16 0.00 0.00
6:53 pm 18:53 Cloudy 74 23.3 56 13.3 54 54 SSW 13 20 29.99 1016 10 16 0.00 0.00
7:53 pm 19:53 Mostly Cloudy 70 21.1 57 13.9 64 64 SSE 6 9 29.99 1016 10 16 0.00 0.00
8:53 pm 20:53 Cloudy 70 21.1 59 15 68 68 S 5 7 30.01 1016 10 16 0.00 0.00
9:53 pm 21:53 Cloudy 69 20.6 61 16.1 76 76 SE 7 11 30.00 1016 10 16 0.00 0.00
10:53 pm 22:53 Cloudy 69 20.6 61 16.1 76 76 SE 6 9 29.99 1016 10 16 0.00 0.00
11:53 pm 23:53 Mostly Cloudy 72 22.2 58 14.4 61 61 S 13 20 29.98 1015 10 16 0.00 0.00

Powered by AerisWeather